Location: Dannhausen
(51.8650°N, 10.1026°E)
Time: 01:55:57
(UTC+00:00)

Cosmos 2233 Rocket - Pass Details

Date: 19 August 2020
Orbit: 952 x 992 km, 82.9° (Epoch: 26 September)

Event Time Altitude Azimuth Distance (km) Brightness Sun altitude
Exits shadow 22:25:38 25° 228° (SW) 1,892 5.2 -24.6°
Maximum altitude 22:29:03 47° 288° (WNW) 1,301 4.8 -24.7°
Drops below altitude 10° 22:35:08 10° 2° (N) 2,759 7.3 -24.9°
Sets 22:37:47 0° 8° (N) 3,707 8.2 -25.0°
